Simultaneous Nadir Overpasses (SNOs) Predictions

Prediction of SNOs between GOES-17 and METOP-C Satellite Orbit:

Table of predicted SNOs for the next 14.0 days since TLE Epoch: 3/6/2020
Index Date Time (GOES-17) GOES-17 Lat,Lon METOP-C Lat,Lon Distance(km) Time Diff (sec)
1 03/07/2020 18:26:20 -0.00,-137.21 -0.81,-133.53 419.09 80
2 03/09/2020 06:45:20 -0.00,-137.18 -0.21,-138.12 106.83 80
3 03/10/2020 06:22:01 -0.00,-137.18 0.93,-133.13 461.23 80
4 03/11/2020 18:40:54 0.00,-137.17 0.14,-137.69 59.45 80
5 03/14/2020 06:41:56 -0.00,-137.13 -0.02,-137.29 18.55 80
6 03/16/2020 18:40:09 -0.00,-137.09 -0.05,-136.86 26.82 80
7 03/19/2020 06:35:50 0.00,-137.04 0.11,-136.45 65.99 80




NCC Satellite Simultaneous Nadir Overpasses (SNOs) Prediction Service
